Precipitable_Water
1.54 1.53 1.50 1.47 1.43 1.41 1.38 1.36 1.35 1.31 1.27 1.23 1.19 1.17 1.14 1.10 1.05 1.01 0.95 0.90 0.86 0.82 0.79 0.76 0.76 0.73 0.66 0.51 0.49 0.58 0.58 0.59 0.61 0.64 0.63 0.58 0.53 0.48 0.39 0.42 0.45 0.42 0.44 0.46 0.45 0.41 0.40
1.52 1.50 1.47 1.47 1.42 1.39 1.36 1.32 1.28 1.25 1.21 1.18 1.15 1.11 1.05 0.99 0.95 0.92 0.88 0.84 0.80 0.76 0.73 0.72 0.72 0.74 0.62 0.44 0.62 0.59 0.59 0.57 0.54 0.61 0.60 0.60 0.53 0.55 0.48 0.43 0.38 0.40 0.39 0.39 0.40 0.41 0.43
1.49 1.48 1.43 1.40 1.36 1.34 1.30 1.26 1.23 1.21 1.15 1.11 1.05 1.00 0.95 0.91 0.89 0.86 0.84 0.82 0.79 0.75 0.72 0.69 0.69 0.70 0.58 0.50 0.59 0.60 0.57 0.53 0.53 0.52 0.52 0.57 0.54 0.45 0.52 0.45 0.47 0.42 0.35 0.37 0.36 0.37 0.38
1.45 1.43 1.38 1.34 1.32 1.29 1.25 1.20 1.15 1.13 1.08 1.04 1.01 0.98 0.95 0.93 0.89 0.85 0.82 0.80 0.77 0.72 0.71 0.68 0.70 0.66 0.46 0.56 0.58 0.56 0.59 0.55 0.56 0.51 0.50 0.55 0.53 0.47 0.44 0.52 0.45 0.38 0.37 0.28 0.34 0.36 0.38
1.38 1.36 1.33 1.29 1.25 1.23 1.17 1.14 1.11 1.09 1.08 1.05 1.01 0.98 0.97 0.92 0.87 0.83 0.80 0.74 0.68 0.67 0.67 0.69 0.60 0.56 0.44 0.61 0.52 0.55 0.59 0.51 0.56 0.54 0.46 0.47 0.49 0.42 0.45 0.38 0.34 0.34 0.25 0.27 0.28 0.33 0.34
1.31 1.29 1.28 1.24 1.20 1.19 1.16 1.11 1.07 1.05 1.04 1.02 0.99 0.96 0.92 0.86 0.81 0.77 0.72 0.63 0.64 0.67 0.67 0.70 0.68 0.49 0.50 0.47 0.55 0.59 0.61 0.58 0.51 0.54 0.52 0.51 0.49 0.39 0.37 0.33 0.23 0.26 0.26 0.26 0.23 0.29 0.34
1.25 1.23 1.18 1.16 1.13 1.13 1.11 1.07 1.03 0.98 0.95 0.93 0.90 0.87 0.85 0.81 0.77 0.73 0.63 0.50 0.51 0.48 0.63 0.46 0.52 0.48 0.49 0.56 0.62 0.56 0.61 0.53 0.48 0.45 0.37 0.43 0.38 0.32 0.35 0.36 0.36 0.33 0.30 0.28 0.30 0.31 0.32
1.17 1.16 1.14 1.10 1.09 1.09 1.07 1.02 0.99 0.96 0.92 0.90 0.88 0.86 0.82 0.78 0.73 0.66 0.57 0.54 0.60 0.67 0.44 0.54 0.53 0.54 0.56 0.58 0.46 0.48 0.56 0.43 0.39 0.33 0.37 0.35 0.29 0.38 0.44 0.43 0.39 0.37 0.33 0.31 0.34 0.35 0.33
1.13 1.11 1.10 1.06 1.05 1.05 1.04 1.02 0.99 0.95 0.93 0.89 0.85 0.81 0.79 0.75 0.70 0.65 0.62 0.62 0.77 0.77 0.43 0.41 0.44 0.42 0.43 0.45 0.39 0.39 0.46 0.42 0.37 0.34 0.34 0.30 0.32 0.38 0.37 0.38 0.38 0.38 0.35 0.34 0.31 0.37 0.37
1.06 1.03 1.02 1.01 1.00 0.99 1.00 1.01 0.99 0.96 0.93 0.88 0.84 0.80 0.74 0.70 0.52 0.61 0.58 0.68 0.71 0.73 0.28 0.26 0.30 0.33 0.38 0.37 0.29 0.37 0.38 0.36 0.32 0.28 0.32 0.30 0.33 0.32 0.32 0.32 0.35 0.26 0.39 0.38 0.36 0.34 0.26
0.98 0.97 0.96 0.95 0.92 0.91 0.89 0.87 0.85 0.85 0.85 0.82 0.79 0.77 0.77 0.72 0.56 0.54 0.58 0.66 0.67 0.53 0.18 0.26 0.31 0.40 0.40 0.33 0.33 0.49 0.47 0.35 0.27 0.27 0.28 0.25 0.27 0.28 0.27 0.28 0.34 0.27 0.36 0.33 0.33 0.30 0.29
0.95 0.95 0.92 0.89 0.88 0.85 0.85 0.85 0.84 0.84 0.82 0.81 0.81 0.81 0.80 0.69 0.60 0.59 0.63 0.62 0.59 0.24 0.16 0.22 0.35 0.34 0.34 0.34 0.33 0.37 0.42 0.44 0.39 0.28 0.27 0.24 0.29 0.28 0.26 0.28 0.30 0.33 0.31 0.31 0.32 0.30 0.23
0.88 0.88 0.89 0.87 0.85 0.83 0.83 0.83 0.85 0.84 0.84 0.84 0.83 0.83 0.80 0.76 0.55 0.67 0.57 0.49 0.24 0.17 0.23 0.22 0.26 0.29 0.29 0.28 0.27 0.33 0.31 0.30 0.28 0.25 0.25 0.31 0.30 0.33 0.33 0.27 0.31 0.29 0.26 0.20 0.19 0.20 0.18
0.75 0.74 0.75 0.75 0.74 0.74 0.75 0.75 0.77 0.78 0.78 0.79 0.79 0.80 0.78 0.75 0.75 0.72 0.60 0.35 0.19 0.22 0.22 0.25 0.24 0.25 0.24 0.28 0.27 0.31 0.35 0.32 0.38 0.34 0.29 0.25 0.21 0.32 0.37 0.30 0.26 0.27 0.27 0.20 0.16 0.17 0.20
0.75 0.74 0.74 0.73 0.72 0.72 0.71 0.71 0.70 0.71 0.73 0.75 0.76 0.70 0.66 0.69 0.76 0.70 0.46 0.25 0.20 0.22 0.24 0.24 0.26 0.23 0.23 0.28 0.27 0.29 0.33 0.33 0.37 0.41 0.29 0.24 0.23 0.38 0.41 0.42 0.38 0.33 0.28 0.28 0.22 0.22 0.21
0.66 0.66 0.66 0.66 0.66 0.67 0.68 0.69 0.70 0.70 0.71 0.71 0.62 0.60 0.55 0.72 0.75 0.60 0.37 0.24 0.22 0.24 0.23 0.24 0.20 0.23 0.22 0.25 0.24 0.26 0.28 0.36 0.34 0.44 0.48 0.39 0.26 0.34 0.38 0.40 0.40 0.38 0.46 0.28 0.28 0.18 0.16
0.62 0.62 0.62 0.61 0.62 0.62 0.63 0.63 0.63 0.64 0.65 0.69 0.56 0.44 0.53 0.66 0.66 0.45 0.28 0.27 0.25 0.25 0.24 0.19 0.16 0.17 0.19 0.19 0.22 0.23 0.25 0.32 0.37 0.34 0.42 0.42 0.38 0.30 0.35 0.32 0.33 0.33 0.32 0.40 0.39 0.30 0.20
0.57 0.57 0.59 0.61 0.60 0.61 0.62 0.62 0.62 0.62 0.61 0.59 0.51 0.32 0.53 0.62 0.35 0.36 0.28 0.30 0.35 0.28 0.31 0.25 0.23 0.19 0.17 0.17 0.15 0.16 0.19 0.26 0.36 0.38 0.32 0.36 0.34 0.25 0.27 0.35 0.38 0.38 0.36 0.36 0.29 0.28 0.33
0.59 0.62 0.63 0.62 0.61 0.61 0.61 0.63 0.64 0.65 0.65 0.56 0.42 0.42 0.59 0.58 0.27 0.27 0.30 0.28 0.33 0.26 0.31 0.31 0.26 0.24 0.25 0.23 0.19 0.19 0.16 0.24 0.32 0.33 0.32 0.36 0.31 0.22 0.19 0.28 0.33 0.32 0.36 0.38 0.37 0.35 0.28
0.59 0.62 0.62 0.60 0.59 0.60 0.59 0.58 0.60 0.60 0.61 0.55 0.41 0.29 0.38 0.45 0.42 0.32 0.29 0.29 0.29 0.36 0.37 0.38 0.37 0.36 0.31 0.26 0.27 0.24 0.22 0.25 0.28 0.31 0.37 0.36 0.29 0.25 0.18 0.19 0.25 0.22 0.26 0.30 0.30 0.26 0.25
0.56 0.56 0.55 0.54 0.53 0.52 0.52 0.54 0.55 0.57 0.58 0.51 0.39 0.30 0.33 0.24 0.29 0.31 0.32 0.29 0.25 0.25 0.33 0.34 0.32 0.31 0.29 0.24 0.23 0.22 0.23 0.24 0.28 0.31 0.32 0.32 0.24 0.27 0.26 0.26 0.26 0.25 0.24 0.25 0.25 0.25 0.22
0.52 0.51 0.51 0.51 0.50 0.49 0.50 0.51 0.52 0.53 0.55 0.43 0.30 0.28 0.32 0.27 0.28 0.25 0.24 0.24 0.23 0.24 0.32 0.30 0.30 0.31 0.33 0.29 0.28 0.23 0.27 0.27 0.25 0.31 0.29 0.34 0.25 0.27 0.22 0.23 0.24 0.22 0.22 0.20 0.20 0.21 0.21
0.49 0.48 0.46 0.44 0.42 0.42 0.45 0.47 0.49 0.50 0.49 0.36 0.38 0.39 0.31 0.23 0.21 0.19 0.18 0.19 0.21 0.26 0.26 0.30 0.33 0.32 0.30 0.32 0.38 0.38 0.40 0.36 0.33 0.29 0.29 0.29 0.27 0.26 0.20 0.25 0.24 0.19 0.17 0.20 0.23 0.24 0.21
0.40 0.39 0.38 0.36 0.35 0.37 0.42 0.45 0.48 0.50 0.49 0.38 0.36 0.33 0.24 0.15 0.17 0.16 0.16 0.17 0.17 0.20 0.20 0.22 0.25 0.25 0.25 0.39 0.39 0.40 0.37 0.37 0.34 0.32 0.33 0.27 0.27 0.27 0.20 0.22 0.14 0.18 0.25 0.25 0.25 0.24 0.25
0.39 0.40 0.43 0.43 0.41 0.45 0.47 0.49 0.49 0.48 0.49 0.41 0.39 0.32 0.24 0.15 0.17 0.16 0.16 0.16 0.17 0.18 0.20 0.20 0.21 0.26 0.32 0.35 0.27 0.26 0.26 0.28 0.28 0.32 0.31 0.33 0.27 0.21 0.18 0.17 0.18 0.16 0.20 0.22 0.22 0.20 0.24
0.42 0.42 0.43 0.44 0.46 0.45 0.46 0.47 0.49 0.48 0.48 0.45 0.41 0.41 0.30 0.21 0.16 0.19 0.17 0.18 0.16 0.20 0.21 0.23 0.27 0.30 0.35 0.32 0.26 0.19 0.17 0.20 0.19 0.22 0.29 0.28 0.26 0.20 0.20 0.14 0.10 0.12 0.20 0.24 0.24 0.15 0.27
0.41 0.40 0.40 0.40 0.40 0.41 0.41 0.41 0.42 0.42 0.43 0.46 0.41 0.43 0.34 0.24 0.26 0.24 0.20 0.19 0.24 0.26 0.22 0.27 0.31 0.30 0.36 0.27 0.21 0.19 0.19 0.22 0.16 0.14 0.16 0.18 0.20 0.15 0.15 0.13 0.13 0.16 0.22 0.25 0.15 0.15 0.29
0.44 0.42 0.41 0.40 0.40 0.40 0.41 0.43 0.43 0.44 0.45 0.45 0.40 0.45 0.36 0.27 0.27 0.29 0.30 0.25 0.26 0.30 0.25 0.31 0.30 0.31 0.32 0.25 0.22 0.20 0.18 0.19 0.17 0.17 0.15 0.14 0.14 0.13 0.15 0.13 0.09 0.21 0.24 0.19 0.22 0.26 0.29
0.43 0.41 0.38 0.39 0.41 0.39 0.40 0.41 0.41 0.41 0.44 0.46 0.37 0.47 0.49 0.35 0.30 0.40 0.40 0.41 0.38 0.40 0.36 0.37 0.33 0.34 0.35 0.28 0.27 0.25 0.21 0.21 0.18 0.13 0.18 0.13 0.15 0.14 0.14 0.12 0.20 0.22 0.21 0.24 0.25 0.24 0.27
Wind_Speed
29 27 27 26 26 26 26 26 26 26 26 26 27 27 27 27 27 28 28 28 29 29 29 29 29 28 25 21 23 25 22 21 19 18 17 16 16 16 17 17 19 19 20 20 22 24 23
31 30 30 29 29 29 29 29 29 29 29 30 30 29 28 29 29 30 30 31 31 31 31 31 29 28 25 24 23 20 20 21 20 19 19 18 17 18 18 18 18 18 20 23 23 23 25
33 31 31 32 33 32 32 31 31 31 31 31 31 30 31 31 31 31 32 32 33 33 32 31 30 28 26 28 27 28 27 25 24 23 22 21 20 19 18 18 19 19 21 21 22 21 24
36 36 36 35 35 34 34 34 33 34 34 33 33 33 32 33 33 34 34 35 35 35 34 32 29 27 26 25 26 25 22 22 23 25 24 24 23 22 21 21 21 21 21 18 16 17 19
38 38 37 37 36 35 35 35 34 35 35 35 35 35 35 35 35 35 36 37 37 36 34 31 30 27 29 24 22 21 20 20 20 20 22 23 23 24 22 21 21 19 21 22 22 20 21
38 38 37 37 37 37 36 36 36 36 35 35 36 35 35 36 36 37 37 38 35 33 31 31 31 29 28 25 23 24 21 21 21 22 22 21 22 23 22 19 24 20 22 22 22 17 18
38 38 37 38 37 38 37 37 37 36 36 35 35 35 35 36 36 37 36 33 32 32 32 32 30 31 29 27 29 25 25 25 24 23 24 24 24 26 27 25 27 26 27 28 27 27 26
39 39 39 38 39 39 39 38 37 37 36 36 36 37 37 37 36 35 32 30 30 33 36 37 39 42 40 36 37 35 31 29 27 26 24 26 31 28 27 26 29 31 32 32 30 29 28
40 40 40 39 39 40 40 40 39 39 39 38 38 37 37 37 37 33 33 31 33 33 35 38 37 38 37 37 40 40 34 33 32 32 30 31 28 23 28 30 30 32 33 32 33 31 34
39 39 39 39 38 39 39 40 40 40 40 39 39 38 37 36 33 33 31 33 33 32 33 36 33 32 29 30 32 33 34 34 34 37 30 34 34 35 36 34 30 37 30 33 34 30 31
40 40 40 40 40 38 38 39 39 39 39 38 37 36 36 34 35 33 33 33 32 28 28 27 27 26 25 24 25 23 23 26 32 31 28 32 27 27 31 34 33 40 30 30 30 31 29
41 40 40 40 39 39 39 39 39 38 38 37 37 36 35 34 34 33 33 31 27 25 31 28 26 25 25 26 27 26 24 24 26 29 33 36 34 33 33 33 31 29 29 30 30 28 30
40 40 40 40 40 39 39 38 38 38 38 37 37 37 36 35 34 33 31 28 26 28 28 26 25 26 27 26 27 27 28 27 26 25 26 28 31 31 31 34 32 32 27 26 27 26 34
38 38 39 39 40 40 40 40 40 40 40 39 39 39 38 37 35 34 32 29 31 32 35 30 25 26 26 24 24 25 25 25 26 25 25 26 27 23 22 24 26 27 28 31 27 26 29
36 36 36 36 36 36 37 37 37 37 38 38 38 38 38 36 37 34 31 33 36 34 33 31 30 28 26 25 24 23 22 24 25 27 26 24 27 25 25 24 23 23 23 31 34 36 29
38 37 38 37 37 36 36 36 36 36 36 36 36 37 38 37 36 34 34 39 37 35 34 30 30 28 28 26 25 24 24 22 23 22 23 24 28 26 25 24 23 22 21 21 22 25 30
39 38 38 37 37 38 37 37 37 37 37 36 36 36 35 33 34 34 35 37 39 40 38 33 34 33 31 29 27 26 27 26 24 22 21 20 22 25 23 22 21 21 21 19 22 21 23
37 36 36 36 35 36 36 36 37 37 37 35 34 34 35 33 32 34 36 36 35 39 34 33 35 38 35 32 32 30 31 29 26 26 24 24 23 25 25 26 22 20 19 21 19 16 17
34 33 34 33 33 34 34 34 33 33 32 32 33 32 31 31 32 34 36 36 35 38 35 31 32 32 30 29 28 30 32 31 29 27 25 23 22 23 26 22 20 18 19 19 19 19 17
33 33 33 32 31 31 31 30 29 29 29 28 27 27 30 31 32 32 31 32 31 29 31 35 31 30 30 29 29 29 29 28 28 27 29 28 28 26 27 24 21 21 21 21 21 21 22
29 29 29 29 30 29 29 29 29 29 29 27 26 26 27 25 26 30 31 31 33 33 33 33 31 34 33 30 30 31 31 30 29 28 27 26 27 28 30 26 25 26 28 26 27 26 24
25 26 26 26 27 27 27 27 27 27 26 26 25 25 26 28 28 29 30 28 32 32 28 29 29 31 28 30 30 29 26 25 25 23 25 24 23 22 25 27 26 28 28 28 29 29 29
20 21 21 22 23 23 22 22 22 22 22 21 23 23 23 24 25 24 27 30 30 28 30 27 25 27 28 27 25 27 28 30 27 23 22 23 22 21 21 19 20 22 28 27 25 25 24
16 17 17 17 17 17 17 18 18 18 19 17 17 16 17 18 18 19 20 24 29 32 35 37 33 31 33 28 25 25 26 27 25 26 25 22 21 20 21 21 21 24 22 20 20 21 20
15 14 14 15 15 16 16 17 18 19 19 18 18 17 17 18 18 19 20 21 22 26 32 37 37 34 29 27 26 23 20 20 24 23 24 23 20 18 18 18 20 23 20 19 17 20 19
14 14 14 15 15 16 17 18 19 20 21 21 21 21 20 20 19 21 20 20 20 19 21 23 28 30 27 26 24 21 20 19 17 17 24 22 20 19 15 15 15 16 15 17 19 23 20
14 15 15 16 17 18 18 19 20 20 21 21 20 22 21 22 22 21 20 18 16 16 17 19 18 21 25 26 27 24 22 21 19 19 16 17 18 21 19 17 19 20 21 20 17 20 20
14 15 15 16 17 17 18 18 19 19 20 20 20 21 22 21 23 23 22 21 20 16 15 14 13 15 19 20 23 23 24 25 20 18 18 17 16 16 16 16 19 15 17 17 18 18 19
14 14 15 15 15 15 16 17 18 19 18 18 17 18 20 20 19 18 20 21 22 21 14 9 10 7 10 15 15 17 17 18 21 19 19 19 19 17 17 17 15 13 14 17 19 20 19
Wind_Direction
251 251 253 256 259 261 263 267 269 271 274 277 279 280 282 283 284 286 287 288 289 290 290 291 292 294 292 286 277 280 279 279 277 273 273 273 272 269 268 269 273 264 266 263 264 268 266
249 252 255 257 259 262 264 267 268 271 274 276 278 279 280 282 284 285 286 287 288 288 289 289 290 290 286 280 279 275 278 277 274 272 270 270 270 272 272 268 266 273 275 272 269 265 265
250 251 255 258 262 263 265 266 269 270 273 275 275 277 280 282 283 284 285 286 286 287 287 287 288 287 282 275 278 277 275 274 270 265 266 265 267 270 272 275 272 273 277 277 271 266 263
252 255 258 260 261 263 266 267 268 270 271 272 274 275 278 280 282 284 284 285 285 284 284 284 284 284 279 279 280 277 274 273 269 262 261 263 265 265 265 269 276 276 275 276 270 274 269
253 255 258 260 262 262 265 267 269 270 271 272 273 276 278 279 281 283 284 284 283 281 280 279 279 278 279 279 273 273 270 271 273 268 262 262 261 261 267 268 274 273 268 266 275 265 268
253 255 256 258 260 264 265 266 269 270 271 273 274 275 276 279 280 282 283 283 280 278 275 275 274 278 275 273 272 272 269 273 272 271 270 263 263 259 263 261 262 263 265 268 267 268 272
253 254 257 258 260 262 264 266 267 270 271 272 274 276 278 279 280 282 283 279 279 277 273 268 270 269 273 273 273 266 272 274 271 266 264 265 262 259 258 257 262 265 266 268 269 272 273
252 255 257 259 260 261 264 265 266 269 271 272 274 275 277 279 280 281 278 276 278 277 276 270 269 268 268 270 269 267 266 266 266 264 267 267 263 263 263 259 260 263 267 269 272 269 267
253 256 257 259 261 262 262 264 266 268 270 272 273 275 277 278 279 275 275 276 279 278 275 273 270 269 268 261 263 265 263 262 261 263 261 260 262 268 263 262 263 263 263 268 270 273 271
254 256 257 260 261 262 262 263 265 267 268 270 272 273 275 277 273 275 272 278 279 277 277 277 274 270 265 262 269 266 259 255 257 259 258 263 262 260 263 263 262 266 262 266 268 270 269
255 256 257 258 261 262 262 264 265 265 266 267 269 270 272 273 273 272 274 277 276 274 278 275 272 271 267 256 266 267 265 255 257 258 255 260 264 263 261 263 260 267 264 265 267 267 269
254 255 256 258 260 262 263 264 264 264 265 266 266 268 270 270 270 270 274 272 268 271 267 274 271 272 269 266 268 268 266 264 261 258 260 263 264 263 265 264 261 267 269 269 265 263 262
255 257 258 259 261 263 263 264 264 264 264 265 265 266 266 267 267 269 271 264 265 259 273 270 270 273 273 269 272 268 268 263 261 264 267 271 267 266 263 265 263 262 264 270 267 257 262
256 258 259 260 262 263 264 264 265 264 265 265 265 266 266 265 266 268 265 257 257 263 262 271 273 274 267 274 269 276 272 265 263 263 266 265 271 268 268 264 263 261 252 252 263 262 267
259 259 260 260 262 263 264 264 264 265 264 265 264 265 265 264 262 263 260 256 257 259 263 269 268 265 263 265 271 273 270 268 267 257 258 262 265 264 269 264 266 269 259 257 256 262 265
258 260 260 262 262 264 264 264 265 265 265 265 265 265 263 262 259 258 256 256 260 260 266 265 263 262 258 261 267 270 265 265 270 271 263 268 271 267 263 268 262 268 273 268 259 253 257
258 259 260 261 261 262 263 264 264 264 265 263 264 264 261 257 253 254 255 256 259 259 261 260 260 260 261 261 259 259 259 261 261 269 268 260 263 266 268 262 263 269 266 267 271 255 258
257 257 257 259 260 261 262 263 263 263 261 260 261 260 260 253 253 255 255 256 261 260 261 258 257 258 259 260 260 257 254 254 257 259 260 264 261 261 260 265 265 262 259 256 258 269 272
255 255 256 257 259 261 262 261 261 260 256 257 258 260 257 253 255 254 258 259 259 260 259 256 255 254 255 256 258 257 255 256 257 254 250 256 259 264 265 264 265 262 259 255 251 258 262
253 252 254 256 257 258 259 258 256 253 253 253 258 259 258 254 256 257 259 258 259 258 262 253 256 259 257 256 256 261 258 258 256 254 257 255 249 249 255 258 258 260 256 252 252 256 257
247 249 251 253 256 255 255 255 254 254 251 251 254 257 256 257 256 256 257 258 258 258 252 255 254 250 253 258 258 256 258 258 254 253 254 252 252 254 256 258 258 261 263 259 252 253 256
244 247 250 251 252 254 254 252 252 249 248 251 254 257 258 258 260 259 257 255 260 260 258 253 250 254 257 255 257 259 259 252 252 254 249 249 255 255 257 258 258 259 259 258 259 261 263
241 244 247 249 250 249 248 248 245 242 243 251 253 255 259 260 261 259 257 256 256 260 254 252 258 260 251 258 251 257 259 256 252 248 248 248 248 251 258 260 259 262 262 260 259 259 259
238 242 244 243 241 240 239 239 236 235 239 247 249 251 255 261 257 258 261 260 258 256 259 256 257 256 253 260 261 254 250 251 248 248 246 247 246 251 259 262 256 260 257 261 257 258 259
234 235 235 236 236 237 237 236 237 240 243 248 249 251 256 262 262 263 262 265 267 265 262 258 252 251 259 251 252 246 242 249 247 245 243 240 241 251 253 253 266 266 258 249 255 262 267
233 236 238 239 240 241 242 243 244 247 248 251 252 253 257 265 262 262 264 266 266 270 277 262 255 246 248 245 236 240 233 234 237 245 234 233 237 239 245 252 255 263 255 258 261 263 267
239 242 244 246 246 247 248 248 249 250 250 251 255 251 255 262 262 262 261 261 261 269 274 277 261 249 239 235 232 235 239 237 234 235 230 227 235 240 247 255 266 262 266 265 256 263 264
243 246 247 248 249 250 250 251 251 251 251 250 256 253 251 261 262 261 260 258 259 255 271 283 270 252 240 228 229 234 238 236 233 232 228 231 231 241 242 248 263 263 263 258 258 267 267
245 248 249 249 248 251 253 253 252 252 250 248 254 253 253 257 264 266 261 258 248 244 259 261 260 281 239 222 234 225 223 234 231 231 235 238 240 240 238 251 257 271 266 266 267 266 270